Regional Weather Roundup
Issued by NWS San Diego, CA

Home | Current Version | Previous Version | Text Only | Print | Product List | Glossary On
Versions: 1 2 3 4 5 6 7 8 9 10 11 12 13 14 15 16 17 18 19 20 21 22 23 24 25 26 27 28 29 30 31 32 33 34 35 36 37 38 39 40 41 42 43 44 45 46 47 48 49 50
000
ASUS46 KSGX 281411
RWRSGX

SAN DIEGO HOURLY WEATHER ROUNDUP
NATIONAL WEATHER SERVICE SAN DIEGO CA
700 AM PDT THU MAY 28 2015

NOTE: "FAIR" INDICATES FEW OR NO CLOUDS BELOW 12,000 FEET WITH NO
SIGNIFICANT WEATHER AND/OR OBSTRUCTIONS TO VISIBILITY.

CAZ042-043-060-061-PZZ750-775-281500-

GREATER SAN DIEGO AREA

CITY           SKY/WX    TMP DP  RH WIND       PRES   REMARKS
LINDBERGH FLD  CLOUDY    63  54  72 W3        30.00R
POINT LOMA       N/A     60  56  86 NW6         N/A
NATIONAL CITY    N/A     62  57  83 N1        30.00R
CHULA VISTA      N/A     61  57  86 CALM      29.93R
IMPERIAL BEACH CLOUDY    62  56  80 NW6       29.99R
BROWN FIELD    CLOUDY    60  55  83 CALM      29.99R
MIRAMAR MCAS   CLOUDY    63  55  75 CALM      29.99R
MONTGOMERY FLD CLOUDY    59  55  87 CALM      29.99R

$$

NORTH SAN DIEGO COUNTY

CITY           SKY/WX    TMP DP  RH WIND       PRES   REMARKS
CAMP PENDLETON CLOUDY    61  54  77 NE3       29.99R HAZE
OCEANSIDE AP   CLOUDY    61  56  83 NW5       29.98R
OCEANSIDE HBR    N/A     62  58  87 NW2       30.01R
VISTA            N/A     59  54  83 CALM      29.97R
CARLSBAD       CLOUDY    61  56  83 CALM      29.98R
DEL MAR          N/A     60  58  91 CALM      30.01R
LA JOLLA SCRIP   N/A    N/A N/A N/A NW1       29.97R
FALLBROOK        N/A     58  58 100 CALM      29.98R
ESCONDIDO        N/A     58  55  88 CALM      30.00R
SAN MARCOS       N/A     59  55  87 CALM      29.97R
POWAY            N/A     58  55  87 CALM      30.01R

$$

EAST SAN DIEGO COUNTY

CITY           SKY/WX    TMP DP  RH WIND       PRES   REMARKS
RAMONA         CLOUDY    54  53  97 CALM      29.99R FOG
SANTEE LAKES     N/A     59  56  87 CALM      29.99R
LA MESA          N/A     58  55  89 NE3       29.93R
JAMUL            N/A     56  54  92 CALM      29.98R
DESCANSO N       N/A     57  46  67 CALM      29.86R
CAMPO            N/A     52  46  80 CALM      29.96R

$$

ORANGE COUNTY AND THE LOS ANGELES BASIN

CITY           SKY/WX    TMP DP  RH WIND       PRES   REMARKS
JOHN WAYNE AP  CLOUDY    61  53  75 VRB3      29.99R
SANTA ANA        N/A     61  56  84 CALM      29.94R
HUNTINGTON BCH   N/A     60  56  87 SW2       30.01R
LOS ALAMITOS   CLOUDY    60  56  86 S2        29.99R
FULLERTON      CLOUDY    61  53  75 CALM      29.98R
LONG BEACH     CLOUDY    61  54  77 SE3       29.99R
L.A. AP        CLOUDY    59  55  87 S5        29.99R
L.A. DOWNTOWN  CLOUDY    59  55  87 CALM      29.98R FOG

$$

THE INLAND EMPIRE

CITY           SKY/WX    TMP DP  RH WIND       PRES   REMARKS
CORONA         PTSUNNY   52  52 100 CALM      30.00R FOG
CHINO          CLOUDY    57  55  93 NW5       30.00R FOG
ONTARIO        CLOUDY    56  53  90 SW5       29.99R FOG
SAN BERNARDINO CLOUDY    55  50  82 CALM      29.99  FOG
RIVERSIDE AP   PTSUNNY   56  53  90 CALM      29.99R
RIV CYN CREST    N/A     57  57 100 W2          N/A
MORENO VALLEY    N/A     54  54  99 CALM      29.97R
MARCH ARB      FOG       54  54 100 W2        29.98S VSB 1
HORSETHIEF CYN   N/A     55  51  86 CALM      29.95R
PERRIS           N/A     55  54  96 W1          N/A
MENIFEE          N/A     54  54  98 CALM      30.05R
HEMET EAST       N/A     53  48  84 CALM      29.93S
FRENCH VALLEY  CLOUDY    54  54 100 CALM      30.00R
TEMECULA         N/A     57  56  95 CALM      29.95R

$$

SAN BERNARDINO AND RIVERSIDE COUNTY MOUNTAINS

CITY           SKY/WX    TMP DP  RH WIND       PRES   REMARKS
BIG BEAR AP    SUNNY     37  30  75 CALM      30.21R
ANGELUS OAKS     N/A     51  37  58 CALM      29.85R
PINE COVE        N/A     57  31  36 CALM      29.90R

$$

SOUTHERN DESERT INCLUDING THE COACHELLA VALLEY

CITY           SKY/WX    TMP DP  RH WIND       PRES   REMARKS
PALM SPRINGS   SUNNY     74  50  42 CALM      29.90R
PALM DESERT      N/A     72  55  54 CALM        N/A
THERMAL        SUNNY     69  53  56 CALM      29.86R
BLYTHE         SUNNY     73  39  29 CALM      29.87R
IMPERIAL AP    SUNNY     69  57  65 SE7       29.85R
EL CENTRO NAS  SUNNY     68  52  56 CALM      29.87R
YUMA AZ        SUNNY     72  46  39 CALM      29.87R
MEXICALI       SUNNY     66  48  52 E5        29.87

$$

UPPER DESERT

CITY           SKY/WX    TMP DP  RH WIND       PRES   REMARKS
VICTORVILLE AP SUNNY     61  34  36 CALM      30.01R
HESPERIA         N/A     58  34  41 W3        30.03R
APPLE VALLEY     N/A     55  40  58 CALM      30.06S
PALMDALE       SUNNY     61  38  42 SW6       29.99R
LANCASTER      SUNNY     62  40  44 CALM      29.99R
EDWARDS AFB    MOSUNNY   62  39  43 SW8       29.96R
DAGGETT        SUNNY     68  39  34 W13       29.95R
29 PALMS N     SUNNY     70  37  29 W9        30.02R

$$

REGIONAL REPORTS

CITY           SKY/WX    TMP DP  RH WIND       PRES   REMARKS
SANTA BARBARA  CLOUDY    56  54  93 NE6       29.98R
SANDBERG       SUNNY     63  36  36 N20G29    30.07R
LAS VEGAS NV   SUNNY     76  36  23 SW5       29.92R
PHOENIX AZ     SUNNY     75  37  25 E10       29.91R
TIJUANA        CLOUDY    59  52  77 NW3       30.01R
ENSENADA NW      N/A     60  32  35 W7        29.96R

$$

OFFSHORE ISLANDS

CITY           SKY/WX    TMP DP  RH WIND       PRES   REMARKS
CATALINA ARPT  FOG       52  52 100 S3        30.00R VSB<1/4
SAN CLEMENTE I CLOUDY    54  54 100 W5        30.01
SAN NICOLAS IS CLOUDY    57  45  64 NW16      29.99R

$$

MARINE AND OFFSHORE BUOY REPORTS

STATION/POSITION SKY/WX   TEMP    WIND        PRES    SWELL
                          AIR SEA DIR/SP/G            HT/PER/DIR
                          (F)     (DEG/KT/KT) (MB)    (FT/S/D)
TANNER BANKS               57 60  320/ 12/ 16 1016.1R   5/240/15
S CLEMENTE BASIN           59 63  310/  6/ 10 1015.7R   3/240/17
SAN NICOLAS IS.               61                N/A     3/240/17
SO. S. ROSA ISLA           55 59  320/ 21/ 25 1014.8R   3/13
W. S. BARBARA CH           53 54  330/ 19/ 23 1014.9R   3/250/14
M. S. BARBARA CH           57 59  350/  4/  6 1015.0R
S. MONICA BASIN            57 62  220/  2/  4 1015.5R
S PEDRO CHANNEL               62                N/A     2/230/17
DANA POINT                    62                N/A     3/210/18
OCEANSIDE OFFSHR              65                N/A     3/210/17
TORREY PINES OTR              65                N/A     3/220/17
LA JOLLA 1                 62 65  310/  2/  3 1014.8R
MISSION BAY BUOY              65                N/A     3/240/17
SAN DIEGO BAY                 63              1015.4R
POINT LOMA SOUTH              64                N/A     3/230/17

$$



USA.gov is the U.S. government's official web portal to all federal, state and local government web resources and services.